LEMUR-2-WALLACE (46910 NORAD) Tracking and Keplerian Element Data

This shows tracking and keplerian element data for the satellite.

Feedback or suggestion? Click here.




ElementValue
Catalog46910
NameLEMUR-2-WALLACE
Epoch Orbit280
Epoch Day331.09457855
Epoch Year2020
RAAN349.2505
Inclination36.9038
Eccentricity0.0006972
Argument of Perigee128.0103
Mean Anonmoly232.1282
Mean Motion14.98918708
Decay Rate1.528E-05
L11 46910U 20081F 20331.09457855 .00001528 00000-0 13026-3 0 9994
L22 46910 36.9038 349.2505 0006972 128.0103 232.1282 14.98918708 2803

Live tracking and technical data element details for LEMUR-2-WALLACE (NORAD 46910). LEMUR-2-WALLACE can be tracked NOW for your location showing map with azimuth and elevation plus other details from your city location.

Track the satellite on the map from your city or location and see movement details for azimuth, elevation, latitude, longitude, range, height, and movement on the map or in text.







IsCatalogInMostPopularTable: catalog: 46910, numindb: 4
Update: records affected: 1



GetName: 46910 LEMUR-2-WALLACE

Hit Count: updated at: Thu, 26 Nov 2020 18:19:47 GMT